* Astronomy

Members Login
Post Info TOPIC: W006nnn


L

Posts: 131433
Date:
Asteroid 2010 AG79
Permalink  
 


2010AG79.gif

__________________


L

Posts: 131433
Date:
Permalink  
 

NASA's Wide-field Infrared Survey Explorer, or WISE, has spotted its second never-before-seen near-Earth asteroid.

__________________


L

Posts: 131433
Date:
Permalink  
 

Orbital elements:
2010 AG79 Earth MOID = 0.2382 AU
Epoch 2010 Jan. 4.0 TT = JDT 2455200.5 MPC
M 3.66604 (2000.0) P Q
n 0.22274929 Peri. 13.63019 +0.46193929 -0.78299212
a 2.6952052 Node 50.69525 +0.75489282 +0.10055594
e 0.5483241 Incl. 32.57202 +0.46556302 +0.61385001
P 4.42 H 20.4 G 0.15 U 8

MPEC 2010 - B57


__________________


L

Posts: 131433
Date:
W006nnn
Permalink  
 


Ephemeris
Date       UT   *  R.A. (J2000) Decl.  Elong.  V        Motion      
h "/min P.A.
2010 01 21 10 00 54 48.3 +46 50 48 91.9 22.3 1.82 034.0
2010 01 21 11 00 54 54.3 +46 52 19 91.8 22.3 1.82 034.1
2010 01 21 12 00 55 00.3 +46 53 49 91.8 22.3 1.82 034.1
2010 01 21 13 00 55 06.2 +46 55 19 91.8 22.3 1.82 034.1
2010 01 21 14 00 55 12.2 +46 56 50 91.8 22.3 1.82 034.2
2010 01 21 15 00 55 18.2 +46 58 20 91.8 22.3 1.82 034.2
2010 01 21 16 00 55 24.2 +46 59 50 91.8 22.3 1.82 034.2
2010 01 21 17 00 55 30.2 +47 01 20 91.8 22.3 1.82 034.3
2010 01 21 18 00 55 36.2 +47 02 50 91.8 22.3 1.82 034.3
2010 01 21 19 00 55 42.2 +47 04 20 91.8 22.3 1.82 034.4
2010 01 21 20 00 55 48.2 +47 05 50 91.8 22.3 1.82 034.4
2010 01 21 21 00 55 54.3 +47 07 20 91.8 22.3 1.82 034.4
2010 01 21 22 00 56 00.3 +47 08 50 91.8 22.3 1.81 034.5
2010 01 21 23 00 56 06.4 +47 10 20 91.8 22.3 1.81 034.5
2010 01 22 00 00 56 12.4 +47 11 49 91.8 22.3 1.81 034.5


__________________
Page 1 of 1  sorted by
Quick Reply

Please log in to post quick replies.



Create your own FREE Forum
Report Abuse
Powered by ActiveBoard